This is the latest recevied weather packets stored in our database for station/object KL1IO. If no packets are shown the sender has not sent any weather packets the latest 1 day(s).
| Time | Temp. | Humidity | Pressure | Rain* | Wind** | Luminosity | Snow |
|---|---|---|---|---|---|---|---|
| 1778025016 | 5° C | 99% | 1011.7 hPa | 1.27 mm | 0 m/s | 76 W/m² | - |
| 1778024714 | 5° C | 99% | 1011.6 hPa | 1.78 mm | 0 m/s | 73 W/m² | - |
| 1778024410 | 5° C | 99% | 1011.7 hPa | 1.78 mm | 0 m/s | 76 W/m² | - |
| 1778024108 | 4.44° C | 99% | 1011.6 hPa | 1.27 mm | 0 m/s | 80 W/m² | - |
| 1778023805 | 4.44° C | 99% | 1011.7 hPa | 1.27 mm | 0 m/s | 84 W/m² | - |
| 1778023503 | 4.44° C | 99% | 1011.5 hPa | 1.78 mm | 0 m/s | 91 W/m² | - |
| 1778023200 | 4.44° C | 99% | 1011.6 hPa | 3.05 mm | 0 m/s | 95 W/m² | - |
| 1778022897 | 5° C | 99% | 1011.4 hPa | 1.27 mm | 0 m/s | 99 W/m² | - |
| 1778022595 | 5° C | 99% | 1011.6 hPa | 1.78 mm | 0 m/s | 102 W/m² | - |
| 1778022293 | 5° C | 99% | 1011.5 hPa | 1.78 mm | 0 m/s | 108 W/m² | - |
| 1778021989 | 5° C | 99% | 1011.4 hPa | 0 mm | 0 m/s | 111 W/m² | - |
| 1778021686 | 5° C | 99% | 1011.3 hPa | 1.27 mm | 0 m/s | 105 W/m² | - |
| 1778021382 | 5° C | 99% | 1011.5 hPa | 0 mm | 0 m/s | 106 W/m² | - |
| 1778021079 | 5° C | 99% | 1011.4 hPa | 1.78 mm | 0 m/s | 108 W/m² | - |
| 1778020776 | 5° C | 99% | 1011.3 hPa | 3.05 mm | 0 m/s | 108 W/m² | - |
| 1778020473 | 5° C | 99% | 1011.5 hPa | 1.27 mm | 0 m/s | 102 W/m² | - |
| 1778020169 | 5° C | 99% | 1011.5 hPa | 1.78 mm | 0 m/s | 98 W/m² | - |
| 1778019866 | 5° C | 99% | 1011.2 hPa | 1.78 mm | 0 m/s | 97 W/m² | - |
| 1778019561 | 5° C | 99% | 1011.4 hPa | 1.27 mm | 0 m/s | 95 W/m² | - |
| 1778019259 | 5° C | 99% | 1011.3 hPa | 1.27 mm | 0 m/s | 93 W/m² | - |
| 1778018956 | 5° C | 99% | 1011.3 hPa | 0 mm | 0 m/s | 106 W/m² | - |
| 1778018653 | 5° C | 99% | 1011.2 hPa | 1.78 mm | 0 m/s | 109 W/m² | - |
| 1778018351 | 5° C | 99% | 1011.2 hPa | 1.78 mm | 0.45 m/s, 264° | 111 W/m² | - |
| 1778018049 | 5° C | 99% | 1011.2 hPa | 0 mm | 0 m/s | 112 W/m² | - |
| 1778017746 | 5° C | 99% | 1010.9 hPa | 0 mm | 0 m/s | 120 W/m² | - |
* Rain latest hour (hover to see other rain measurements)
** Current wind speed in m/s (hover to see current wind gust speed)